Volver al catálogo

CZ-6A DEB

ActivoPO
NORAD 61325·DEBRIS·🇨🇳 China

Lanzado Aug 6, 2024 desde Taiyuan Satellite Launch Center

Loading…

Próximos Pases (próximas 24 horas)

TLE

ActualizadoSource: Space-Track

Época: Sep 14, 2026, 10:40 UTC

1 61325U 24140UN  26257.44474002  .00001663  00000-0  32091-3 0  9999
2 61325  88.9246 251.9524 0079965 228.2276 131.2086 14.60984533107797

Sigue CZ-6A DEB en tiempo real con AllMySat

Download on the App Store